Time,TemperatureF,DewpointF,PressureIn,WindDirection,WindDirectionDegrees,WindSpeedMPH,WindSpeedGustMPH,Humidity,HourlyPrecipIn,Conditions,Clouds,dailyrainin,SoftwareType,DateUTC
2013-05-12 00:21:00,53.0,25.0,30.06,North,-999,0.0,0.0,33,0.00,,,-99.99,,2013-05-12 07:21:00,
2013-05-12 00:32:00,53.0,25.0,30.06,North,-999,0.0,0.0,33,0.00,,,-99.99,,2013-05-12 07:32:00,
2013-05-12 01:21:00,53.0,25.0,30.06,North,-999,0.0,0.0,33,0.00,,,-99.99,,2013-05-12 08:21:00,
2013-05-12 01:32:00,53.0,25.0,30.06,North,-999,0.0,0.0,33,0.00,,,-99.99,,2013-05-12 08:32:00,
2013-05-12 02:21:00,53.0,24.0,30.05,North,-999,0.0,0.0,32,0.00,,,-99.99,,2013-05-12 09:21:00,
2013-05-12 02:33:00,53.0,24.0,30.05,North,-999,0.0,0.0,32,0.00,,,-99.99,,2013-05-12 09:33:00,
2013-05-12 03:22:00,51.0,21.0,30.05,North,-999,0.0,0.0,31,0.00,,,-99.99,,2013-05-12 10:22:00,
2013-05-12 03:33:00,51.0,21.0,30.05,North,-999,0.0,0.0,31,0.00,,,-99.99,,2013-05-12 10:33:00,
2013-05-12 04:21:00,51.0,23.0,30.04,North,-999,0.0,0.0,33,0.00,,,-99.99,,2013-05-12 11:21:00,
2013-05-12 04:32:00,51.0,23.0,30.04,North,-999,0.0,0.0,33,0.00,,,-99.99,,2013-05-12 11:32:00,
2013-05-12 05:21:00,50.0,23.0,30.04,North,-999,0.0,0.0,34,0.00,,,-99.99,,2013-05-12 12:21:00,
2013-05-12 05:32:00,50.0,23.0,30.04,North,-999,0.0,0.0,34,0.00,,,-99.99,,2013-05-12 12:32:00,
2013-05-12 06:21:00,50.0,23.0,30.05,North,-999,0.0,0.0,34,0.00,,,-99.99,,2013-05-12 13:21:00,
2013-05-12 06:31:00,50.0,23.0,30.05,North,-999,0.0,0.0,34,0.00,,,-99.99,,2013-05-12 13:31:00,
2013-05-12 07:21:00,55.0,27.0,30.07,North,-999,0.0,0.0,34,0.00,,,-99.99,,2013-05-12 14:21:00,
2013-05-12 07:31:00,55.0,27.0,30.07,North,-999,0.0,0.0,34,0.00,,,-99.99,,2013-05-12 14:31:00,
2013-05-12 08:21:00,65.0,25.0,30.07,North,360,1.0,2.0,22,0.00,,,-99.99,,2013-05-12 15:21:00,
2013-05-12 08:33:00,65.0,25.0,30.07,North,360,1.0,2.0,22,0.00,,,-99.99,,2013-05-12 15:33:00,
2013-05-12 09:23:00,66.0,24.0,30.06,North,10,2.0,8.0,20,0.00,,,-99.99,,2013-05-12 16:23:00,
2013-05-12 09:32:00,66.0,24.0,30.06,North,10,2.0,8.0,20,0.00,,,-99.99,,2013-05-12 16:32:00,
2013-05-12 09:42:00,66.0,24.0,30.06,North,10,2.0,8.0,20,0.00,,,-99.99,,2013-05-12 16:42:00,
2013-05-12 10:22:00,68.0,23.0,30.05,SE,130,3.0,11.0,18,0.00,,,-99.99,,2013-05-12 17:22:00,
2013-05-12 10:32:00,68.0,23.0,30.05,SE,130,3.0,11.0,18,0.00,,,-99.99,,2013-05-12 17:32:00,
2013-05-12 10:42:00,68.0,23.0,30.05,SE,130,3.0,11.0,18,0.00,,,-99.99,,2013-05-12 17:42:00,
2013-05-12 11:22:00,70.0,23.0,30.05,NNE,30,8.0,11.0,17,0.00,,,-99.99,,2013-05-12 18:22:00,
2013-05-12 11:31:00,70.0,23.0,30.05,NNE,30,8.0,11.0,17,0.00,,,-99.99,,2013-05-12 18:31:00,
2013-05-12 11:41:00,70.0,23.0,30.05,NNE,30,8.0,11.0,17,0.00,,,-99.99,,2013-05-12 18:41:00,
2013-05-12 12:21:00,71.0,25.0,30.03,NNE,30,8.0,11.0,18,0.00,,,-99.99,,2013-05-12 19:21:00,
2013-05-12 12:32:00,71.0,25.0,30.03,NNE,30,8.0,11.0,18,0.00,,,-99.99,,2013-05-12 19:32:00,
2013-05-12 12:42:00,71.0,25.0,30.03,NNE,30,8.0,11.0,18,0.00,,,-99.99,,2013-05-12 19:42:00,
2013-05-12 13:21:00,72.0,23.0,30.02,NE,40,6.0,11.0,16,0.00,,,-99.99,,2013-05-12 20:21:00,
2013-05-12 13:32:00,72.0,23.0,30.02,NE,40,6.0,11.0,16,0.00,,,-99.99,,2013-05-12 20:32:00,
2013-05-12 13:42:00,72.0,23.0,30.02,NE,40,6.0,11.0,16,0.00,,,-99.99,,2013-05-12 20:42:00,
2013-05-12 14:21:00,69.0,21.0,30.00,ENE,70,2.0,10.0,16,0.00,,,-99.99,,2013-05-12 21:21:00,
2013-05-12 14:33:00,69.0,21.0,30.00,ENE,70,2.0,10.0,16,0.00,,,-99.99,,2013-05-12 21:33:00,
2013-05-12 14:42:00,69.0,21.0,30.00,ENE,70,2.0,10.0,16,0.00,,,-99.99,,2013-05-12 21:42:00,
2013-05-12 15:23:00,74.0,26.0,29.98,ESE,110,1.0,6.0,17,0.00,,,-99.99,,2013-05-12 22:23:00,
2013-05-12 15:32:00,74.0,26.0,29.98,ESE,110,1.0,6.0,17,0.00,,,-99.99,,2013-05-12 22:32:00,
2013-05-12 15:42:00,74.0,26.0,29.98,ESE,110,1.0,6.0,17,0.00,,,-99.99,,2013-05-12 22:42:00,
2013-05-12 16:22:00,71.0,21.0,29.95,SW,230,1.0,5.0,15,0.00,,,-99.99,,2013-05-12 23:22:00,
2013-05-12 16:32:00,71.0,21.0,29.95,SW,230,1.0,5.0,15,0.00,,,-99.99,,2013-05-12 23:32:00,
2013-05-12 16:42:00,71.0,21.0,29.95,SW,230,1.0,5.0,15,0.00,,,-99.99,,2013-05-12 23:42:00,
2013-05-12 17:21:00,67.0,25.0,29.95,North,0,0.0,3.0,20,0.00,,,-99.99,,2013-05-13 00:21:00,
2013-05-12 17:32:00,67.0,25.0,29.95,North,0,0.0,3.0,20,0.00,,,-99.99,,2013-05-13 00:32:00,
2013-05-12 17:41:00,67.0,25.0,29.95,North,0,0.0,3.0,20,0.00,,,-99.99,,2013-05-13 00:41:00,
2013-05-12 18:22:00,69.0,19.0,29.93,ENE,70,3.0,5.0,15,0.00,,,-99.99,,2013-05-13 01:22:00,
2013-05-12 18:31:00,69.0,19.0,29.93,ENE,70,3.0,5.0,15,0.00,,,-99.99,,2013-05-13 01:31:00,
2013-05-12 18:41:00,69.0,19.0,29.93,ENE,70,3.0,5.0,15,0.00,,,-99.99,,2013-05-13 01:41:00,
2013-05-12 19:21:00,67.0,19.0,29.92,ENE,70,1.0,-999.0,16,0.00,,,-99.99,,2013-05-13 02:21:00,
2013-05-12 19:31:00,67.0,19.0,29.92,ENE,70,1.0,-999.0,16,0.00,,,-99.99,,2013-05-13 02:31:00,
2013-05-12 19:41:00,67.0,19.0,29.92,ENE,70,1.0,-999.0,16,0.00,,,-99.99,,2013-05-13 02:41:00,
2013-05-12 20:21:00,62.0,32.0,29.93,SW,220,2.0,3.0,32,0.00,,,-99.99,,2013-05-13 03:21:00,
2013-05-12 20:32:00,62.0,32.0,29.93,SW,220,2.0,3.0,32,0.00,,,-99.99,,2013-05-13 03:32:00,
2013-05-12 20:42:00,62.0,32.0,29.93,SW,220,2.0,3.0,32,0.00,,,-99.99,,2013-05-13 03:42:00,
2013-05-12 21:23:00,57.0,32.0,29.94,SW,220,2.0,2.0,38,0.00,,,-99.99,,2013-05-13 04:23:00,
2013-05-12 21:32:00,57.0,32.0,29.94,SW,220,2.0,2.0,38,0.00,,,-99.99,,2013-05-13 04:32:00,
2013-05-12 21:41:00,57.0,32.0,29.94,SW,220,2.0,2.0,38,0.00,,,-99.99,,2013-05-13 04:41:00,
2013-05-12 22:21:00,56.0,26.0,29.96,SW,230,1.0,2.0,31,0.00,,,-99.99,,2013-05-13 05:21:00,
2013-05-12 22:32:00,56.0,26.0,29.96,SW,230,1.0,2.0,31,0.00,,,-99.99,,2013-05-13 05:32:00,
2013-05-12 23:21:00,55.0,32.0,29.97,SW,230,2.0,3.0,42,0.00,,,-99.99,,2013-05-13 06:21:00,
2013-05-12 23:31:00,55.0,32.0,29.97,SW,230,2.0,3.0,42,0.00,,,-99.99,,2013-05-13 06:31:00,